Location: Casilda
(33.0440°S, 61.1680°W)
Time: 10:15:24
(UTC-03:00)

ISS - Pass Details

Date: 14 October 2019
Orbit: 411 x 421 km, 51.6° (Epoch: 18 October)

Event Time Altitude Azimuth Distance (km) Brightness Sun altitude
Exits shadow 04:35:03 - 203° (SSW) 2,097 -0.2 -22.8°
Reaches altitude 10° 04:37:17 10° 178° (S) 1,529 -0.6 -22.3°
Maximum altitude 04:38:49 12° 151° (SSE) 1,383 -0.4 -22.0°
Drops below altitude 10° 04:40:22 10° 124° (SE) 1,524 0.2 -21.8°
Sets 04:43:30 0° 93° (E) 2,384 1.3 -21.2°
